When you browse on this site, cookies collect data to enhance your experience and personalize the content and advertising you see.
Visit our Privacy Policy to learn more. By continuing to use the site, you agree to this use of cookies and data.
  • en Suisse
  • Liste des pays
  • À 7 jours
  • Température de l'eau
  • Carte météo
  • Widgets météo
  • user-avatar
    Se connecter

    Météo par heure à Ghazni

    Ce jour, 21 Août, Mercredi

    Heure Température Précipitation Vent Pression Humidité
    00:00 +21°C° 0 mm 3 m/s 588 mmHg 14%
    01:00 +21°C° 0 mm 3 m/s 587 mmHg 15%
    02:00 +20°C° 0 mm 2 m/s 587 mmHg 15%
    03:00 +19°C° 0 mm 2 m/s 587 mmHg 16%
    04:00 +19°C° 0 mm 2 m/s 586 mmHg 17%
    05:00 +18°C° 0 mm 2 m/s 586 mmHg 18%
    06:00 +19°C° 0 mm 2 m/s 587 mmHg 17%
    07:00 +20°C° 0 mm 2 m/s 588 mmHg 16%
    08:00 +21°C° 0 mm 2 m/s 588 mmHg 15%
    09:00 +23°C° 0 mm 2 m/s 588 mmHg 13%
    10:00 +25°C° 0 mm 2 m/s 589 mmHg 12%
    11:00 +26°C° 0 mm 2 m/s 589 mmHg 11%
    12:00 +27°C° 0 mm 2 m/s 589 mmHg 10%
    13:00 +28°C° 0 mm 2 m/s 589 mmHg 9%
    14:00 +29°C° 0 mm 2 m/s 589 mmHg 8%
    15:00 +29°C° 0 mm 2 m/s 588 mmHg 8%
    16:00 +29°C° 0 mm 3 m/s 588 mmHg 8%
    17:00 +29°C° 0 mm 3 m/s 588 mmHg 8%
    18:00 +28°C° 0 mm 3 m/s 588 mmHg 9%
    19:00 +27°C° 0 mm 3 m/s 588 mmHg 10%
    20:00 +26°C° 0 mm 4 m/s 588 mmHg 11%
    21:00 +25°C° 0 mm 3 m/s 588 mmHg 12%
    22:00 +24°C° 0 mm 3 m/s 588 mmHg 12%
    23:00 +22°C° 0 mm 3 m/s 587 mmHg 13%

    Demain, 22 Août, Jeudi

    Heure Température Précipitation Vent Pression Humidité
    00:00 +21°C° 0 mm 2 m/s 587 mmHg 15%
    01:00 +21°C° 0 mm 2 m/s 586 mmHg 16%
    02:00 +21°C° 0 mm 1 m/s 586 mmHg 17%
    03:00 +20°C° 0 mm 1 m/s 586 mmHg 18%
    04:00 +19°C° 0 mm 2 m/s 586 mmHg 19%
    05:00 +18°C° 0 mm 2 m/s 586 mmHg 19%
    06:00 +19°C° 0 mm 2 m/s 586 mmHg 18%
    07:00 +21°C° 0 mm 1 m/s 587 mmHg 17%
    08:00 +22°C° 0 mm 1 m/s 588 mmHg 16%
    09:00 +24°C° 0 mm 1 m/s 588 mmHg 16%
    10:00 +25°C° 0 mm 1 m/s 588 mmHg 16%
    11:00 +26°C° 0 mm 2 m/s 588 mmHg 16%
    12:00 +27°C° 0 mm 2 m/s 589 mmHg 14%
    13:00 +28°C° 0 mm 3 m/s 589 mmHg 12%
    14:00 +30°C° 0 mm 3 m/s 589 mmHg 11%
    15:00 +30°C° 0 mm 4 m/s 589 mmHg 10%
    16:00 +30°C° 0 mm 4 m/s 589 mmHg 9%
    17:00 +32°C° 0 mm 4 m/s 589 mmHg 7%
    18:00 +30°C° 0 mm 5 m/s 588 mmHg 8%
    19:00 +28°C° 0 mm 5 m/s 588 mmHg 9%
    20:00 +27°C° 0 mm 5 m/s 588 mmHg 9%
    21:00 +26°C° 0 mm 4 m/s 588 mmHg 13%
    22:00 +25°C° 0 mm 4 m/s 588 mmHg 17%
    23:00 +24°C° 0 mm 3 m/s 588 mmHg 21%

    Après-demain, 23 Août, Vendredi

    Heure Température Précipitation Vent Pression Humidité
    00:00 +22°C° 0 mm 3 m/s 587 mmHg 25%
    01:00 +21°C° 0 mm 2 m/s 587 mmHg 30%
    02:00 +21°C° 0 mm 1 m/s 587 mmHg 35%
    03:00 +21°C° 0 mm 1 m/s 587 mmHg 39%
    04:00 +20°C° 0 mm 1 m/s 586 mmHg 43%
    05:00 +19°C° 0 mm 1 m/s 586 mmHg 47%
    06:00 +20°C° 0 mm 1 m/s 587 mmHg 43%
    07:00 +19°C° 0 mm 0 m/s 587 mmHg 39%
    08:00 +21°C° 0 mm 0 m/s 588 mmHg 35%
    09:00 +24°C° 0 mm 1 m/s 588 mmHg 30%
    10:00 +25°C° 0 mm 1 m/s 589 mmHg 25%
    11:00 +27°C° 0 mm 1 m/s 589 mmHg 21%
    12:00 +28°C° 0 mm 2 m/s 589 mmHg 18%
    13:00 +29°C° 0 mm 3 m/s 589 mmHg 15%
    14:00 +30°C° 0 mm 3 m/s 589 mmHg 13%
    15:00 +30°C° 0 mm 4 m/s 589 mmHg 11%
    16:00 +32°C° 0 mm 4 m/s 589 mmHg 10%
    17:00 +32°C° 0 mm 5 m/s 589 mmHg 8%
    18:00 +30°C° 0 mm 5 m/s 589 mmHg 8%
    19:00 +29°C° 0 mm 6 m/s 588 mmHg 8%
    20:00 +28°C° 0 mm 7 m/s 588 mmHg 9%
    21:00 +27°C° 0 mm 6 m/s 588 mmHg 10%
    22:00 +26°C° 0 mm 5 m/s 588 mmHg 11%
    23:00 +25°C° 0 mm 5 m/s 588 mmHg 13%

    24 Août, Samedi

    Heure Température Précipitation Vent Pression Humidité
    00:00 +23°C° 0 mm 4 m/s 588 mmHg 16%
    01:00 +22°C° 0 mm 4 m/s 588 mmHg 19%
    02:00 +21°C° 0 mm 3 m/s 587 mmHg 22%
    03:00 +21°C° 0 mm 3 m/s 587 mmHg 23%
    04:00 +20°C° 0 mm 3 m/s 587 mmHg 24%
    05:00 +20°C° 0 mm 2 m/s 587 mmHg 25%
    06:00 +21°C° 0 mm 2 m/s 587 mmHg 24%
    07:00 +21°C° 0 mm 2 m/s 588 mmHg 23%
    08:00 +23°C° 0 mm 2 m/s 588 mmHg 22%
    09:00 +25°C° 0 mm 1 m/s 589 mmHg 21%
    10:00 +26°C° 0 mm 1 m/s 589 mmHg 20%
    11:00 +27°C° 0 mm 1 m/s 589 mmHg 19%
    12:00 +28°C° 0 mm 2 m/s 589 mmHg 16%
    13:00 +29°C° 0 mm 3 m/s 589 mmHg 14%
    14:00 +30°C° 0 mm 4 m/s 589 mmHg 11%
    15:00 +32°C° 0 mm 4 m/s 589 mmHg 10%
    16:00 +32°C° 0 mm 5 m/s 589 mmHg 8%
    17:00 +32°C° 0 mm 6 m/s 588 mmHg 7%
    18:00 +30°C° 0 mm 6 m/s 588 mmHg 8%
    19:00 +28°C° 0 mm 7 m/s 588 mmHg 9%
    20:00 +27°C° 0 mm 7 m/s 588 mmHg 10%
    21:00 +26°C° 0 mm 6 m/s 588 mmHg 10%
    22:00 +25°C° 0 mm 5 m/s 588 mmHg 11%
    23:00 +23°C° 0 mm 4 m/s 588 mmHg 12%

    25 Août, Dimanche

    Heure Température Précipitation Vent Pression Humidité
    00:00 +24°C° 0 mm 3 m/s 587 mmHg 13%
    01:00 +22°C° 0 mm 3 m/s 587 mmHg 14%
    02:00 +21°C° 0 mm 2 m/s 586 mmHg 16%
    03:00 +20°C° 0 mm 2 m/s 586 mmHg 17%
    04:00 +20°C° 0 mm 1 m/s 586 mmHg 18%
    05:00 +20°C° 0 mm 1 m/s 586 mmHg 20%
    06:00 +21°C° 0 mm 1 m/s 586 mmHg 18%
    07:00 +22°C° 0 mm 1 m/s 587 mmHg 17%
    08:00 +23°C° 0 mm 1 m/s 588 mmHg 15%
    09:00 +25°C° 0 mm 1 m/s 588 mmHg 15%
    10:00 +26°C° 0 mm 1 m/s 589 mmHg 14%
    11:00 +28°C° 0 mm 2 m/s 589 mmHg 14%
    12:00 +29°C° 0 mm 2 m/s 589 mmHg 12%
    13:00 +30°C° 0 mm 3 m/s 589 mmHg 10%
    14:00 +32°C° 0 mm 4 m/s 589 mmHg 9%
    15:00 +32°C° 0 mm 4 m/s 589 mmHg 8%
    16:00 +32°C° 0 mm 5 m/s 589 mmHg 8%
    17:00 +32°C° 0 mm 6 m/s 589 mmHg 7%
    18:00 +30°C° 0 mm 5 m/s 589 mmHg 8%
    19:00 +29°C° 0 mm 5 m/s 589 mmHg 9%
    20:00 +27°C° 0 mm 5 m/s 589 mmHg 10%
    21:00 +26°C° 0 mm 4 m/s 589 mmHg 14%
    22:00 +25°C° 0 mm 4 m/s 589 mmHg 17%
    23:00 +25°C° 0 mm 3 m/s 589 mmHg 21%

    26 Août, Lundi

    Heure Température Précipitation Vent Pression Humidité
    00:00 +24°C° 0 mm 2 m/s 588 mmHg 24%
    01:00 +23°C° 0 mm 2 m/s 588 mmHg 27%
    02:00 +22°C° 0 mm 1 m/s 587 mmHg 30%
    03:00 +21°C° 0 mm 1 m/s 587 mmHg 31%
    04:00 +21°C° 0 mm 1 m/s 587 mmHg 31%
    05:00 +20°C° 0 mm 1 m/s 587 mmHg 32%
    06:00 +22°C° 0 mm 1 m/s 587 mmHg 30%
    07:00 +23°C° 0 mm 1 m/s 588 mmHg 27%
    08:00 +24°C° 0 mm 1 m/s 589 mmHg 25%
    09:00 +25°C° 0 mm 1 m/s 589 mmHg 22%
    10:00 +26°C° 0 mm 1 m/s 590 mmHg 19%
    11:00 +28°C° 0 mm 1 m/s 590 mmHg 17%
    12:00 +29°C° 0 mm 2 m/s 590 mmHg 15%
    13:00 +30°C° 0 mm 2 m/s 590 mmHg 12%
    14:00 +31°C° 0 mm 3 m/s 590 mmHg 10%
    15:00 +32°C° 0 mm 4 m/s 590 mmHg 9%
    16:00 +32°C° 0 mm 4 m/s 590 mmHg 9%
    17:00 +32°C° 0 mm 5 m/s 589 mmHg 8%
    18:00 +30°C° 0 mm 4 m/s 589 mmHg 9%
    19:00 +29°C° 0 mm 4 m/s 589 mmHg 10%
    20:00 +28°C° 0 mm 4 m/s 589 mmHg 10%
    21:00 +27°C° 0 mm 4 m/s 589 mmHg 17%
    22:00 +26°C° 0 mm 4 m/s 589 mmHg 24%
    23:00 +25°C° 0 mm 4 m/s 589 mmHg 30%
    Voir plus